Flag Weather past 2 weeks in Kalamazoo, Michigan, U.S.A.

Now
45 °F

Overcast.


Feels Like: 42 °F
Forecast: 40 / 51 °F
Wind: 6 mph from Southwest

Location: Kalamazoo / Battle Creek International Airport

Current Time: Oct 30, 2014 at 10:40:57 AM

Latest Report: Oct 30, 2014 at 9:53 AM


Visibility: 10 mi

Pressure: 30.15 "Hg

Humidity: 76%

Dew point: 38 °F

Location of KalamazooLocation

Historic Weather in Kalamazoo — Graph

°F

Kalamazoo temperature yesterday

Maximum temperature yesterday: 47 °F (at 12:53 AM)
Minimum temperature yesterday: 44 °F (at 10:53 AM)
Average temperature yesterday: 45 °F

Past Weeks' High & Low Weather Summary

 TemperatureHumidityPressure
High74 °F (Oct 27, 3:53 PM)100% (Oct 23, 8:53 AM)30.41 "Hg (Oct 23, 8:53 AM)
Low29 °F (Oct 19, 7:53 AM)26% (Oct 25, 3:53 PM)29.56 "Hg (Oct 17, 7:53 AM)
Average50 °F75%29.96 "Hg
* Reported Oct 15 10:04 AM — Oct 30 9:53 AM, Kalamazoo, Weather by CustomWeather, © 2014

Note: Actual official high and low records may vary slightly from our data, if they occured in-between our weather recording intervals... More about our weather records

Advertising

Kalamazoo weather history for previous 24 hours

 ConditionsComfort  
Time TempWeatherWind HumidityBarometerVisibility
9:53 AM
Oct 30
45 °FOvercast.6 mph76%30.15 "Hg10 mi
8:53 AM44 °FOvercast.6 mph79%30.15 "Hg10 mi
7:53 AM44 °FOvercast.5 mph79%30.14 "Hg10 mi
6:53 AM44 °FOvercast.5 mph76%30.14 "Hg10 mi
5:53 AM44 °FOvercast.3 mph76%30.14 "Hg10 mi
4:53 AM44 °FOvercast.3 mph76%30.14 "Hg10 mi
3:53 AM44 °FOvercast.No wind76%30.14 "Hg10 mi
2:53 AM44 °FOvercast.No wind79%30.14 "Hg10 mi
1:53 AM43 °FOvercast.No wind82%30.13 "Hg10 mi
12:53 AM44 °FMostly cloudy.No wind76%30.13 "Hg10 mi
11:53 PM
Oct 29
44 °FOvercast.3 mph73%30.13 "Hg10 mi
10:53 PM44 °FOvercast.5 mph73%30.14 "Hg10 mi
10:01 PM45 °FMostly cloudy.5 mph71%30.11 "Hg10 mi
8:53 PM45 °FMostly cloudy.7 mph71%30.12 "Hg10 mi
7:53 PM45 °FMostly cloudy.5 mph74%30.12 "Hg10 mi
6:53 PM45 °FOvercast.6 mph74%30.10 "Hg10 mi
5:53 PM44 °FOvercast.5 mph76%30.08 "Hg10 mi
4:53 PM45 °FCloudy.10 mph68%30.07 "Hg10 mi
3:53 PM45 °FMore clouds than sun.7 mph80%30.05 "Hg10 mi
2:53 PM44 °FMore clouds than sun.9 mph82%30.05 "Hg10 mi
1:53 PM44 °FLight rain. Overcast.13 mph79%30.04 "Hg10 mi
12:53 PM45 °FOvercast.12 mph76%30.03 "Hg10 mi
11:53 AM44 °FLight rain. Mostly cloudy.12 mph79%30.03 "Hg6 mi
10:53 AM44 °FLight rain. Mostly cloudy.13 mph76%30.01 "Hg7 mi
Weather by CustomWeather, © 2014

See weather overviewHow to use our weather pages